Zurück zum Katalog

BREEZE-M DEB

LostMEO
NORAD 43469·DEBRIS·🇷🇺 Russia

Gestartet Apr 18, 2018 von Baikonur Cosmodrome

Loading…

Nächste Überflüge (nächste 24 Stunden)

TLE

VeraltetSource: Space-Track

Epoche: Aug 7, 2018, 19:46 UTC

1 43469U 18037D   18219.82369852 -.00000163 +00000-0 +10000-3 0  9994
2 43469 000.0375 091.1128 0840954 332.6454 019.0520 00.90669864000850

Verfolge BREEZE-M DEB in Echtzeit mit AllMySat

Download on the App Store